Time,TemperatureF,DewpointF,PressureIn,WindDirection,WindDirectionDegrees,WindSpeedMPH,WindSpeedGustMPH,Humidity,HourlyPrecipIn,Conditions,Clouds,dailyrainin,SoftwareType,DateUTC
2013-10-27 00:01:00,49.8,35.2,29.95,WNW,291,1.0,4.0,57,0.00,,,0.00,meteohub,2013-10-27 04:01:00,
2013-10-27 00:02:00,49.8,35.2,29.95,WNW,283,0.0,4.0,57,0.00,,,0.00,meteohub,2013-10-27 04:02:00,
2013-10-27 00:07:00,49.8,35.2,29.95,West,280,0.0,4.0,57,0.00,,,0.00,meteohub,2013-10-27 04:07:00,
2013-10-27 00:12:00,49.8,35.2,29.95,SSW,205,0.0,3.0,57,0.00,,,0.00,meteohub,2013-10-27 04:12:00,
2013-10-27 00:17:00,49.8,35.2,29.95,SW,233,0.0,3.0,57,0.00,,,0.00,meteohub,2013-10-27 04:17:00,
2013-10-27 00:22:00,49.8,35.2,29.95,NW,309,3.0,3.0,57,0.00,,,0.00,meteohub,2013-10-27 04:22:00,
2013-10-27 00:27:00,49.8,35.2,29.94,West,281,1.0,5.0,57,0.00,,,0.00,meteohub,2013-10-27 04:27:00,
2013-10-27 00:32:00,49.6,35.4,29.94,West,274,0.0,5.0,58,0.00,,,0.00,meteohub,2013-10-27 04:32:00,
2013-10-27 00:37:00,49.6,35.4,29.94,WNW,301,5.0,5.0,58,0.00,,,0.00,meteohub,2013-10-27 04:37:00,
2013-10-27 00:42:00,49.6,35.4,29.94,WSW,245,0.0,5.0,58,0.00,,,0.00,meteohub,2013-10-27 04:42:00,
2013-10-27 00:47:00,49.6,35.4,29.94,WNW,289,1.0,5.0,58,0.00,,,0.00,meteohub,2013-10-27 04:47:00,
2013-10-27 00:52:00,49.6,36.0,29.94,WSW,255,0.0,5.0,59,0.00,,,0.00,meteohub,2013-10-27 04:52:00,
2013-10-27 00:57:00,49.6,36.0,29.94,WNW,298,1.0,2.0,59,0.00,,,0.00,meteohub,2013-10-27 04:57:00,
2013-10-27 01:02:00,49.6,36.0,29.94,West,278,1.0,2.0,59,0.00,,,0.00,meteohub,2013-10-27 05:02:00,
2013-10-27 01:07:00,49.5,35.8,29.94,West,268,0.0,3.0,59,0.00,,,0.00,meteohub,2013-10-27 05:07:00,
2013-10-27 01:12:00,49.5,35.8,29.94,SSE,164,0.0,3.0,59,0.00,,,0.00,meteohub,2013-10-27 05:12:00,
2013-10-27 01:17:00,49.5,36.1,29.94,NW,309,0.0,3.0,60,0.00,,,0.00,meteohub,2013-10-27 05:17:00,
2013-10-27 01:22:00,49.5,36.1,29.94,West,263,0.0,3.0,60,0.00,,,0.00,meteohub,2013-10-27 05:22:00,
2013-10-27 01:27:00,49.3,36.0,29.93,WNW,283,1.0,6.0,60,0.00,,,0.00,meteohub,2013-10-27 05:27:00,
2013-10-27 01:32:00,49.3,36.0,29.93,ENE,78,0.0,6.0,60,0.00,,,0.00,meteohub,2013-10-27 05:32:00,
2013-10-27 01:37:00,49.3,36.0,29.94,NW,315,1.0,6.0,60,0.00,,,0.00,meteohub,2013-10-27 05:37:00,
2013-10-27 01:42:00,49.3,36.0,29.94,West,278,0.0,4.0,60,0.00,,,0.00,meteohub,2013-10-27 05:42:00,
2013-10-27 01:47:00,49.3,36.0,29.94,West,267,0.0,4.0,60,0.00,,,0.00,meteohub,2013-10-27 05:47:00,
2013-10-27 01:52:00,49.3,36.3,29.94,West,267,0.0,4.0,61,0.00,,,0.00,meteohub,2013-10-27 05:52:00,
2013-10-27 01:57:00,49.3,36.3,29.94,West,263,2.0,2.0,61,0.00,,,0.00,meteohub,2013-10-27 05:57:00,
2013-10-27 02:02:00,49.5,36.1,29.94,WNW,288,3.0,3.0,60,0.00,,,0.00,meteohub,2013-10-27 06:02:00,
2013-10-27 02:07:00,49.5,36.5,29.94,WNW,294,2.0,5.0,61,0.00,,,0.00,meteohub,2013-10-27 06:07:00,
2013-10-27 02:12:00,49.3,36.3,29.94,NW,304,2.0,5.0,61,0.00,,,0.00,meteohub,2013-10-27 06:12:00,
2013-10-27 02:17:00,49.3,36.3,29.93,WNW,283,3.0,5.0,61,0.00,,,0.00,meteohub,2013-10-27 06:17:00,
2013-10-27 02:22:00,49.1,36.3,29.94,NW,305,2.0,6.0,61,0.00,,,0.00,meteohub,2013-10-27 06:22:00,
2013-10-27 02:27:00,49.1,36.7,29.94,WNW,283,1.0,6.0,62,0.00,,,0.00,meteohub,2013-10-27 06:27:00,
2013-10-27 02:32:00,48.9,36.5,29.94,WNW,288,0.0,6.0,62,0.00,,,0.00,meteohub,2013-10-27 06:32:00,
2013-10-27 02:37:00,48.9,36.5,29.93,WNW,288,0.0,6.0,62,0.00,,,0.00,meteohub,2013-10-27 06:37:00,
2013-10-27 02:42:00,48.9,36.9,29.93,WNW,288,0.0,4.0,63,0.00,,,0.00,meteohub,2013-10-27 06:42:00,
2013-10-27 02:47:00,48.7,36.7,29.93,WNW,288,0.0,3.0,63,0.00,,,0.00,meteohub,2013-10-27 06:47:00,
2013-10-27 02:52:00,48.6,36.5,29.93,WNW,288,0.0,0.0,63,0.00,,,0.00,meteohub,2013-10-27 06:52:00,
2013-10-27 02:57:00,48.6,36.5,29.93,WNW,288,0.0,0.0,63,0.00,,,0.00,meteohub,2013-10-27 06:57:00,
2013-10-27 03:02:00,48.6,36.5,29.93,NW,312,2.0,2.0,63,0.00,,,0.00,meteohub,2013-10-27 07:02:00,
2013-10-27 03:07:00,48.7,36.3,29.94,WNW,294,2.0,4.0,62,0.00,,,0.00,meteohub,2013-10-27 07:07:00,
2013-10-27 03:12:00,48.9,36.5,29.93,WNW,294,0.0,4.0,62,0.00,,,0.00,meteohub,2013-10-27 07:12:00,
2013-10-27 03:17:00,48.9,36.1,29.93,WNW,285,2.0,5.0,61,0.00,,,0.00,meteohub,2013-10-27 07:17:00,
2013-10-27 03:22:00,48.9,36.1,29.93,WNW,288,2.0,5.0,61,0.00,,,0.00,meteohub,2013-10-27 07:22:00,
2013-10-27 03:27:00,48.9,36.1,29.93,WNW,296,1.0,5.0,61,0.00,,,0.00,meteohub,2013-10-27 07:27:00,
2013-10-27 03:32:00,48.9,36.1,29.93,WNW,294,1.0,4.0,61,0.00,,,0.00,meteohub,2013-10-27 07:32:00,
2013-10-27 03:37:00,48.9,36.1,29.93,WNW,288,2.0,5.0,61,0.00,,,0.00,meteohub,2013-10-27 07:37:00,
2013-10-27 03:42:00,48.9,35.6,29.92,West,266,2.0,6.0,60,0.00,,,0.00,meteohub,2013-10-27 07:42:00,
2013-10-27 03:47:00,48.9,35.6,29.92,WNW,284,3.0,6.0,60,0.00,,,0.00,meteohub,2013-10-27 07:47:00,
2013-10-27 03:52:00,48.9,35.6,29.92,WNW,295,4.0,6.0,60,0.00,,,0.00,meteohub,2013-10-27 07:52:00,
2013-10-27 03:57:00,48.9,35.2,29.92,WNW,283,3.0,7.0,59,0.00,,,0.00,meteohub,2013-10-27 07:57:00,
2013-10-27 04:02:00,48.7,35.1,29.92,WNW,295,3.0,7.0,59,0.00,,,0.00,meteohub,2013-10-27 08:02:00,
2013-10-27 04:07:00,48.6,35.2,29.92,West,281,2.0,7.0,60,0.00,,,0.00,meteohub,2013-10-27 08:07:00,
2013-10-27 04:12:00,48.4,35.1,29.92,WNW,288,5.0,6.0,60,0.00,,,0.00,meteohub,2013-10-27 08:12:00,
2013-10-27 04:17:00,48.4,35.1,29.92,WNW,283,2.0,6.0,60,0.00,,,0.00,meteohub,2013-10-27 08:17:00,
2013-10-27 04:22:00,48.2,34.5,29.92,West,281,0.0,6.0,59,0.00,,,0.00,meteohub,2013-10-27 08:22:00,
2013-10-27 04:27:00,48.0,34.9,29.92,WNW,298,0.0,5.0,60,0.00,,,0.00,meteohub,2013-10-27 08:27:00,
2013-10-27 04:32:00,47.7,34.5,29.92,WNW,298,1.0,5.0,60,0.00,,,0.00,meteohub,2013-10-27 08:32:00,
2013-10-27 04:37:00,47.5,34.3,29.92,WNW,290,3.0,5.0,60,0.00,,,0.00,meteohub,2013-10-27 08:37:00,
2013-10-27 04:42:00,47.5,34.3,29.92,WNW,290,2.0,5.0,60,0.00,,,0.00,meteohub,2013-10-27 08:42:00,
2013-10-27 04:47:00,47.5,34.3,29.92,WNW,297,4.0,5.0,60,0.00,,,0.00,meteohub,2013-10-27 08:47:00,
2013-10-27 04:52:00,47.3,34.2,29.93,WNW,302,2.0,5.0,60,0.00,,,0.00,meteohub,2013-10-27 08:52:00,
2013-10-27 04:57:00,47.1,34.0,29.93,WNW,300,1.0,4.0,60,0.00,,,0.00,meteohub,2013-10-27 08:57:00,
2013-10-27 05:02:00,47.1,34.0,29.93,WNW,290,1.0,4.0,60,0.00,,,0.00,meteohub,2013-10-27 09:02:00,
2013-10-27 05:07:00,46.9,33.8,29.94,WNW,298,1.0,4.0,60,0.00,,,0.00,meteohub,2013-10-27 09:07:00,
2013-10-27 05:12:00,46.9,33.8,29.94,WNW,291,2.0,4.0,60,0.00,,,0.00,meteohub,2013-10-27 09:12:00,
2013-10-27 05:17:00,46.9,33.8,29.94,WNW,288,2.0,4.0,60,0.00,,,0.00,meteohub,2013-10-27 09:17:00,
2013-10-27 05:22:00,46.9,33.8,29.95,WNW,294,2.0,7.0,60,0.00,,,0.00,meteohub,2013-10-27 09:22:00,
2013-10-27 05:27:00,46.8,33.6,29.95,West,281,1.0,7.0,60,0.00,,,0.00,meteohub,2013-10-27 09:27:00,
2013-10-27 05:32:00,46.6,33.4,29.95,West,281,2.0,7.0,60,0.00,,,0.00,meteohub,2013-10-27 09:32:00,
2013-10-27 05:37:00,46.4,33.6,29.95,WNW,287,2.0,4.0,61,0.00,,,0.00,meteohub,2013-10-27 09:37:00,
2013-10-27 05:42:00,46.0,33.3,29.95,West,278,1.0,4.0,61,0.00,,,0.00,meteohub,2013-10-27 09:42:00,
2013-10-27 05:47:00,46.0,33.3,29.95,WSW,243,0.0,4.0,61,0.00,,,0.00,meteohub,2013-10-27 09:47:00,
2013-10-27 05:52:00,45.7,33.4,29.95,WSW,243,0.0,3.0,62,0.00,,,0.00,meteohub,2013-10-27 09:52:00,
2013-10-27 05:57:00,45.3,33.4,29.95,SSE,160,0.0,3.0,63,0.00,,,0.00,meteohub,2013-10-27 09:57:00,
2013-10-27 06:02:00,45.1,33.3,29.96,SSE,165,0.0,3.0,63,0.00,,,0.00,meteohub,2013-10-27 10:02:00,
2013-10-27 06:07:00,44.8,33.3,29.96,SSE,159,0.0,3.0,64,0.00,,,0.00,meteohub,2013-10-27 10:07:00,
2013-10-27 06:12:00,44.4,33.4,29.96,WNW,290,0.0,0.0,65,0.00,,,0.00,meteohub,2013-10-27 10:12:00,
2013-10-27 06:17:00,44.2,33.3,29.96,WSW,249,0.0,0.0,65,0.00,,,0.00,meteohub,2013-10-27 10:17:00,
2013-10-27 06:22:00,43.9,32.9,29.97,WSW,249,0.0,1.0,65,0.00,,,0.00,meteohub,2013-10-27 10:22:00,
2013-10-27 06:27:00,43.7,33.1,29.97,WSW,249,0.0,1.0,66,0.00,,,0.00,meteohub,2013-10-27 10:27:00,
2013-10-27 06:32:00,43.9,33.6,29.97,WNW,300,0.0,1.0,67,0.00,,,0.00,meteohub,2013-10-27 10:32:00,
2013-10-27 06:37:00,43.9,33.6,29.97,WNW,289,0.0,2.0,67,0.00,,,0.00,meteohub,2013-10-27 10:37:00,
2013-10-27 06:42:00,43.9,33.3,29.97,WNW,290,0.0,2.0,66,0.00,,,0.00,meteohub,2013-10-27 10:42:00,
2013-10-27 06:47:00,43.5,32.9,29.97,WNW,290,0.0,2.0,66,0.00,,,0.00,meteohub,2013-10-27 10:47:00,
2013-10-27 06:52:00,43.2,32.9,29.97,WNW,285,0.0,1.0,67,0.00,,,0.00,meteohub,2013-10-27 10:52:00,
2013-10-27 06:57:00,42.8,32.9,29.97,WNW,285,0.0,0.0,68,0.00,,,0.00,meteohub,2013-10-27 10:57:00,
2013-10-27 07:02:00,42.4,32.7,29.97,WNW,285,0.0,0.0,68,0.00,,,0.00,meteohub,2013-10-27 11:02:00,
2013-10-27 07:07:00,42.3,32.9,29.97,WNW,285,0.0,0.0,69,0.00,,,0.00,meteohub,2013-10-27 11:07:00,
2013-10-27 07:12:00,41.9,32.9,29.98,WNW,285,0.0,0.0,70,0.00,,,0.00,meteohub,2013-10-27 11:12:00,
2013-10-27 07:17:00,42.1,33.4,29.98,WNW,294,0.0,0.0,71,0.00,,,0.00,meteohub,2013-10-27 11:17:00,
2013-10-27 07:22:00,42.4,33.6,29.98,WNW,285,1.0,1.0,71,0.00,,,0.00,meteohub,2013-10-27 11:22:00,
2013-10-27 07:27:00,42.8,33.6,29.99,WNW,285,1.0,2.0,70,0.00,,,0.00,meteohub,2013-10-27 11:27:00,
2013-10-27 07:32:00,43.2,33.6,29.99,WNW,285,2.0,5.0,69,0.00,,,0.00,meteohub,2013-10-27 11:32:00,
2013-10-27 07:38:00,43.3,33.8,29.99,NW,313,0.0,5.0,69,0.00,,,0.00,meteohub,2013-10-27 11:38:00,
2013-10-27 07:43:00,43.3,33.8,29.99,WNW,288,0.0,5.0,69,0.00,,,0.00,meteohub,2013-10-27 11:43:00,
2013-10-27 07:48:00,43.2,33.6,29.99,West,274,0.0,4.0,69,0.00,,,0.00,meteohub,2013-10-27 11:48:00,
2013-10-27 07:53:00,43.0,33.8,29.99,WNW,285,0.0,4.0,70,0.00,,,0.00,meteohub,2013-10-27 11:53:00,
2013-10-27 07:58:00,43.0,33.8,29.99,NW,304,0.0,1.0,70,0.00,,,0.00,meteohub,2013-10-27 11:58:00,
2013-10-27 08:03:00,43.3,34.2,30.00,West,278,1.0,5.0,70,0.00,,,0.00,meteohub,2013-10-27 12:03:00,
2013-10-27 08:08:00,43.9,34.3,30.00,WNW,294,3.0,5.0,69,0.00,,,0.00,meteohub,2013-10-27 12:08:00,
2013-10-27 08:13:00,44.2,34.3,30.00,NW,305,2.0,6.0,68,0.00,,,0.00,meteohub,2013-10-27 12:13:00,
2013-10-27 08:18:00,44.8,34.9,30.00,WSW,256,0.0,6.0,68,0.00,,,0.00,meteohub,2013-10-27 12:18:00,
2013-10-27 08:23:00,45.1,34.9,30.00,NW,304,1.0,6.0,67,0.00,,,0.00,meteohub,2013-10-27 12:23:00,
2013-10-27 08:28:00,45.7,35.1,30.01,WNW,292,5.0,5.0,66,0.00,,,0.00,meteohub,2013-10-27 12:28:00,
2013-10-27 08:33:00,46.0,35.2,30.01,NW,308,3.0,5.0,66,0.00,,,0.00,meteohub,2013-10-27 12:33:00,
2013-10-27 08:38:00,46.4,35.2,30.01,WNW,292,3.0,10.0,65,0.00,,,0.00,meteohub,2013-10-27 12:38:00,
2013-10-27 08:43:00,46.6,35.1,30.01,WNW,284,2.0,10.0,64,0.00,,,0.00,meteohub,2013-10-27 12:43:00,
2013-10-27 08:48:00,46.9,35.4,30.01,West,281,5.0,10.0,64,0.00,,,0.00,meteohub,2013-10-27 12:48:00,
2013-10-27 08:53:00,47.1,35.6,30.02,West,270,7.0,7.0,64,0.00,,,0.00,meteohub,2013-10-27 12:53:00,
2013-10-27 08:58:00,47.5,35.6,30.02,WNW,287,3.0,8.0,63,0.00,,,0.00,meteohub,2013-10-27 12:58:00,
2013-10-27 09:03:00,47.8,35.8,30.03,NW,319,5.0,9.0,63,0.00,,,0.00,meteohub,2013-10-27 13:03:00,
2013-10-27 09:08:00,48.0,35.6,30.02,WNW,293,6.0,10.0,62,0.00,,,0.00,meteohub,2013-10-27 13:08:00,
2013-10-27 09:13:00,48.4,36.0,30.02,NW,316,3.0,10.0,62,0.00,,,0.00,meteohub,2013-10-27 13:13:00,
2013-10-27 09:18:00,48.6,36.1,30.02,NW,320,3.0,12.0,62,0.00,,,0.00,meteohub,2013-10-27 13:18:00,
2013-10-27 09:23:00,48.9,36.1,30.03,NW,312,8.0,12.0,61,0.00,,,0.00,meteohub,2013-10-27 13:23:00,
2013-10-27 09:28:00,48.9,36.1,30.03,WNW,297,3.0,12.0,61,0.00,,,0.00,meteohub,2013-10-27 13:28:00,
2013-10-27 09:33:00,49.3,36.3,30.02,WNW,292,2.0,10.0,61,0.00,,,0.00,meteohub,2013-10-27 13:33:00,
2013-10-27 09:38:00,49.6,36.3,30.03,WNW,301,9.0,10.0,60,0.00,,,0.00,meteohub,2013-10-27 13:38:00,
2013-10-27 09:43:00,49.6,36.3,30.03,WNW,303,9.0,12.0,60,0.00,,,0.00,meteohub,2013-10-27 13:43:00,
2013-10-27 09:48:00,49.8,36.5,30.03,WNW,292,5.0,12.0,60,0.00,,,0.00,meteohub,2013-10-27 13:48:00,
2013-10-27 09:53:00,50.0,36.3,30.03,WNW,287,4.0,12.0,59,0.00,,,0.00,meteohub,2013-10-27 13:53:00,
2013-10-27 09:58:00,50.4,36.5,30.03,WNW,284,4.0,12.0,59,0.00,,,0.00,meteohub,2013-10-27 13:58:00,
2013-10-27 10:03:00,50.5,36.7,30.03,NNW,339,3.0,14.0,59,0.00,,,0.00,meteohub,2013-10-27 14:03:00,
2013-10-27 10:08:00,51.1,36.9,30.03,NW,316,9.0,14.0,58,0.00,,,0.00,meteohub,2013-10-27 14:08:00,
2013-10-27 10:13:00,51.3,36.1,30.03,NNW,341,3.0,15.0,56,0.00,,,0.00,meteohub,2013-10-27 14:13:00,
2013-10-27 10:18:00,51.4,36.3,30.04,WNW,295,4.0,15.0,56,0.00,,,0.00,meteohub,2013-10-27 14:18:00,
2013-10-27 10:24:00,51.6,36.5,30.04,WNW,300,10.0,15.0,56,0.00,,,0.00,meteohub,2013-10-27 14:24:00,
2013-10-27 10:28:00,51.6,36.0,30.04,North,8,5.0,16.0,55,0.00,,,0.00,meteohub,2013-10-27 14:28:00,
2013-10-27 10:33:00,52.0,36.3,30.04,NW,309,5.0,16.0,55,0.00,,,0.00,meteohub,2013-10-27 14:33:00,
2013-10-27 10:38:00,52.2,36.0,30.04,West,264,9.0,16.0,54,0.00,,,0.00,meteohub,2013-10-27 14:38:00,
2013-10-27 10:43:00,52.3,36.7,30.04,WNW,301,5.0,16.0,55,0.00,,,0.00,meteohub,2013-10-27 14:43:00,
2013-10-27 10:48:00,52.5,36.3,30.04,NW,326,4.0,16.0,54,0.00,,,0.00,meteohub,2013-10-27 14:48:00,
2013-10-27 10:53:00,52.7,36.0,30.04,WNW,302,9.0,16.0,53,0.00,,,0.00,meteohub,2013-10-27 14:53:00,
2013-10-27 10:58:00,52.5,36.3,30.04,NW,315,2.0,16.0,54,0.00,,,0.00,meteohub,2013-10-27 14:58:00,
2013-10-27 11:03:00,52.7,36.5,30.04,WNW,300,2.0,16.0,54,0.00,,,0.00,meteohub,2013-10-27 15:03:00,
2013-10-27 11:08:00,53.1,36.3,30.04,NW,325,3.0,16.0,53,0.00,,,0.00,meteohub,2013-10-27 15:08:00,
2013-10-27 11:13:00,53.1,36.3,30.04,West,267,5.0,16.0,53,0.00,,,0.00,meteohub,2013-10-27 15:13:00,
2013-10-27 11:18:00,53.1,36.3,30.04,NW,321,4.0,16.0,53,0.00,,,0.00,meteohub,2013-10-27 15:18:00,
2013-10-27 11:23:00,53.1,36.3,30.04,West,259,9.0,16.0,53,0.00,,,0.00,meteohub,2013-10-27 15:23:00,
2013-10-27 11:28:00,53.2,36.5,30.04,NW,308,5.0,16.0,53,0.00,,,0.00,meteohub,2013-10-27 15:28:00,
2013-10-27 11:33:00,53.8,36.5,30.04,NW,314,3.0,16.0,52,0.00,,,0.00,meteohub,2013-10-27 15:33:00,
2013-10-27 11:38:00,54.1,36.3,30.04,NW,323,3.0,16.0,51,0.00,,,0.00,meteohub,2013-10-27 15:38:00,
2013-10-27 11:43:00,54.7,36.9,30.04,WNW,302,6.0,14.0,51,0.00,,,0.00,meteohub,2013-10-27 15:43:00,
2013-10-27 11:48:00,55.0,37.2,30.04,NW,319,7.0,9.0,51,0.00,,,0.00,meteohub,2013-10-27 15:48:00,
2013-10-27 11:53:00,55.0,36.7,30.03,NW,309,5.0,10.0,50,0.00,,,0.00,meteohub,2013-10-27 15:53:00,
2013-10-27 11:58:00,54.7,36.9,30.03,NW,316,5.0,12.0,51,0.00,,,0.00,meteohub,2013-10-27 15:58:00,
2013-10-27 12:03:00,54.7,36.3,30.03,NW,325,5.0,14.0,50,0.00,,,0.00,meteohub,2013-10-27 16:03:00,
2013-10-27 12:08:00,54.5,36.3,30.03,WNW,294,7.0,14.0,50,0.00,,,0.00,meteohub,2013-10-27 16:08:00,
2013-10-27 12:13:00,54.3,36.5,30.03,NW,304,3.0,14.0,51,0.00,,,0.00,meteohub,2013-10-27 16:13:00,
2013-10-27 12:18:00,54.9,37.0,30.02,WNW,290,2.0,15.0,51,0.00,,,0.00,meteohub,2013-10-27 16:18:00,
2013-10-27 12:23:00,55.2,36.3,30.02,WNW,299,4.0,15.0,49,0.00,,,0.00,meteohub,2013-10-27 16:23:00,
2013-10-27 12:28:00,55.4,36.5,30.02,WNW,289,7.0,15.0,49,0.00,,,0.00,meteohub,2013-10-27 16:28:00,
2013-10-27 12:33:00,55.2,36.3,30.02,WNW,285,4.0,12.0,49,0.00,,,0.00,meteohub,2013-10-27 16:33:00,
2013-10-27 12:38:00,55.2,36.3,30.02,NNW,332,5.0,17.0,49,0.00,,,0.00,meteohub,2013-10-27 16:38:00,
2013-10-27 12:43:00,55.0,36.1,30.02,WNW,285,4.0,17.0,49,0.00,,,0.00,meteohub,2013-10-27 16:43:00,
2013-10-27 12:48:00,55.2,36.3,30.01,WNW,294,5.0,17.0,49,0.00,,,0.00,meteohub,2013-10-27 16:48:00,
2013-10-27 12:53:00,55.6,36.7,30.01,WNW,285,8.0,14.0,49,0.00,,,0.00,meteohub,2013-10-27 16:53:00,
2013-10-27 12:58:00,55.8,36.3,30.01,WNW,287,6.0,14.0,48,0.00,,,0.00,meteohub,2013-10-27 16:58:00,
2013-10-27 13:03:00,55.8,36.3,30.01,West,278,5.0,15.0,48,0.00,,,0.00,meteohub,2013-10-27 17:03:00,
2013-10-27 13:08:00,56.1,36.1,30.01,NW,318,6.0,15.0,47,0.00,,,0.00,meteohub,2013-10-27 17:08:00,
2013-10-27 13:13:00,56.5,36.5,30.01,WNW,296,8.0,15.0,47,0.00,,,0.00,meteohub,2013-10-27 17:13:00,
2013-10-27 13:18:00,56.1,35.6,30.01,WNW,294,9.0,15.0,46,0.00,,,0.00,meteohub,2013-10-27 17:18:00,
2013-10-27 13:23:00,56.7,36.7,30.01,WNW,287,7.0,14.0,47,0.00,,,0.00,meteohub,2013-10-27 17:23:00,
2013-10-27 13:28:00,56.8,36.9,30.00,WNW,283,6.0,14.0,47,0.00,,,0.00,meteohub,2013-10-27 17:28:00,
2013-10-27 13:33:00,56.7,36.1,30.00,NW,312,7.0,13.0,46,0.00,,,0.00,meteohub,2013-10-27 17:33:00,
2013-10-27 13:38:00,56.7,36.1,30.00,West,280,4.0,17.0,46,0.00,,,0.00,meteohub,2013-10-27 17:38:00,
2013-10-27 13:43:00,57.4,35.6,30.00,NW,321,3.0,17.0,44,0.00,,,0.00,meteohub,2013-10-27 17:43:00,
2013-10-27 13:48:00,57.0,36.0,30.00,WNW,292,4.0,17.0,45,0.00,,,0.00,meteohub,2013-10-27 17:48:00,
2013-10-27 13:53:00,57.4,36.1,30.00,West,281,5.0,13.0,45,0.00,,,0.00,meteohub,2013-10-27 17:53:00,
2013-10-27 13:58:00,57.2,36.0,29.99,WNW,288,7.0,13.0,45,0.00,,,0.00,meteohub,2013-10-27 17:58:00,
2013-10-27 14:03:00,57.0,35.2,29.99,WNW,291,8.0,11.0,44,0.00,,,0.00,meteohub,2013-10-27 18:03:00,
2013-10-27 14:08:00,57.7,36.0,29.99,WNW,291,8.0,12.0,44,0.00,,,0.00,meteohub,2013-10-27 18:08:00,
2013-10-27 14:13:00,57.4,35.6,29.99,WNW,294,8.0,14.0,44,0.00,,,0.00,meteohub,2013-10-27 18:13:00,
2013-10-27 14:18:00,57.7,36.0,29.99,NW,313,3.0,14.0,44,0.00,,,0.00,meteohub,2013-10-27 18:18:00,
2013-10-27 14:23:00,57.6,35.2,30.00,WNW,300,10.0,16.0,43,0.00,,,0.00,meteohub,2013-10-27 18:23:00,
2013-10-27 14:28:00,57.6,35.2,30.00,NW,312,6.0,16.0,43,0.00,,,0.00,meteohub,2013-10-27 18:28:00,
2013-10-27 14:33:00,57.7,34.9,30.00,NW,309,4.0,19.0,42,0.00,,,0.00,meteohub,2013-10-27 18:33:00,
2013-10-27 14:38:00,57.7,34.9,30.00,NW,315,4.0,19.0,42,0.00,,,0.00,meteohub,2013-10-27 18:38:00,
2013-10-27 14:43:00,57.4,35.1,30.00,WNW,291,5.0,19.0,43,0.00,,,0.00,meteohub,2013-10-27 18:43:00,
2013-10-27 14:48:00,57.9,35.6,30.01,NW,320,5.0,12.0,43,0.00,,,0.00,meteohub,2013-10-27 18:48:00,
2013-10-27 14:53:00,58.3,34.7,30.01,WNW,300,4.0,11.0,41,0.00,,,0.00,meteohub,2013-10-27 18:53:00,
2013-10-27 14:58:00,57.7,33.6,30.01,West,273,9.0,11.0,40,0.00,,,0.00,meteohub,2013-10-27 18:58:00,
2013-10-27 15:03:00,57.6,34.0,30.00,WNW,294,6.0,16.0,41,0.00,,,0.00,meteohub,2013-10-27 19:03:00,
2013-10-27 15:08:00,57.6,34.7,30.01,WNW,292,7.0,16.0,42,0.00,,,0.00,meteohub,2013-10-27 19:08:00,
2013-10-27 15:13:00,57.4,35.1,30.01,WNW,287,5.0,16.0,43,0.00,,,0.00,meteohub,2013-10-27 19:13:00,
2013-10-27 15:18:00,57.6,34.7,30.01,WNW,297,10.0,13.0,42,0.00,,,0.00,meteohub,2013-10-27 19:18:00,
2013-10-27 15:23:00,57.6,34.7,30.01,NW,304,8.0,15.0,42,0.00,,,0.00,meteohub,2013-10-27 19:23:00,
2013-10-27 15:28:00,57.4,35.1,30.01,NW,313,3.0,15.0,43,0.00,,,0.00,meteohub,2013-10-27 19:28:00,
2013-10-27 15:33:00,57.2,34.3,30.01,WNW,298,7.0,16.0,42,0.00,,,0.00,meteohub,2013-10-27 19:33:00,
2013-10-27 15:38:00,57.4,34.5,30.01,NW,316,5.0,17.0,42,0.00,,,0.00,meteohub,2013-10-27 19:38:00,
2013-10-27 15:43:00,57.7,34.9,30.01,WNW,284,11.0,17.0,42,0.00,,,0.00,meteohub,2013-10-27 19:43:00,
2013-10-27 15:48:00,57.6,34.7,30.01,West,266,7.0,17.0,42,0.00,,,0.00,meteohub,2013-10-27 19:48:00,
2013-10-27 15:53:00,57.6,34.0,30.01,WNW,295,5.0,12.0,41,0.00,,,0.00,meteohub,2013-10-27 19:53:00,
2013-10-27 15:58:00,57.6,34.0,30.01,WNW,294,7.0,13.0,41,0.00,,,0.00,meteohub,2013-10-27 19:58:00,
2013-10-27 16:03:00,57.4,35.1,30.01,NW,308,2.0,13.0,43,0.00,,,0.00,meteohub,2013-10-27 20:03:00,
2013-10-27 16:08:00,57.6,34.7,30.02,West,270,11.0,15.0,42,0.00,,,0.00,meteohub,2013-10-27 20:08:00,
2013-10-27 16:13:00,57.6,34.7,30.02,WNW,284,3.0,15.0,42,0.00,,,0.00,meteohub,2013-10-27 20:13:00,
2013-10-27 16:18:00,57.6,34.7,30.02,NW,307,6.0,15.0,42,0.00,,,0.00,meteohub,2013-10-27 20:18:00,
2013-10-27 16:23:00,57.4,34.5,30.02,NW,309,4.0,15.0,42,0.00,,,0.00,meteohub,2013-10-27 20:23:00,
2013-10-27 16:28:00,57.0,34.2,30.03,North,353,4.0,15.0,42,0.00,,,0.00,meteohub,2013-10-27 20:28:00,
2013-10-27 16:33:00,57.0,34.7,30.03,NW,319,2.0,15.0,43,0.00,,,0.00,meteohub,2013-10-27 20:33:00,
2013-10-27 16:38:00,56.8,34.0,30.03,NNW,328,3.0,15.0,42,0.00,,,0.00,meteohub,2013-10-27 20:38:00,
2013-10-27 16:43:00,56.8,34.0,30.03,NW,319,3.0,15.0,42,0.00,,,0.00,meteohub,2013-10-27 20:43:00,
2013-10-27 16:48:00,56.7,33.8,30.03,WNW,300,4.0,13.0,42,0.00,,,0.00,meteohub,2013-10-27 20:48:00,
2013-10-27 16:53:00,56.7,34.3,30.04,NE,50,7.0,13.0,43,0.00,,,0.00,meteohub,2013-10-27 20:53:00,
2013-10-27 16:58:00,56.7,34.3,30.04,WNW,296,4.0,12.0,43,0.00,,,0.00,meteohub,2013-10-27 20:58:00,
2013-10-27 17:03:00,56.7,35.1,30.04,NW,317,3.0,12.0,44,0.00,,,0.00,meteohub,2013-10-27 21:03:00,
2013-10-27 17:08:00,56.3,34.7,30.04,North,350,3.0,12.0,44,0.00,,,0.00,meteohub,2013-10-27 21:08:00,
2013-10-27 17:13:00,56.1,34.5,30.04,West,278,6.0,11.0,44,0.00,,,0.00,meteohub,2013-10-27 21:13:00,
2013-10-27 17:18:00,55.9,33.8,30.04,NNW,328,1.0,11.0,43,0.00,,,0.00,meteohub,2013-10-27 21:18:00,
2013-10-27 17:23:00,55.8,33.6,30.04,WNW,299,5.0,11.0,43,0.00,,,0.00,meteohub,2013-10-27 21:23:00,
2013-10-27 17:28:00,55.6,33.4,30.04,NNW,342,2.0,10.0,43,0.00,,,0.00,meteohub,2013-10-27 21:28:00,
2013-10-27 17:33:00,55.2,33.6,30.04,WNW,298,3.0,10.0,44,0.00,,,0.00,meteohub,2013-10-27 21:33:00,
2013-10-27 17:38:00,55.4,33.8,30.05,NW,305,4.0,10.0,44,0.00,,,0.00,meteohub,2013-10-27 21:38:00,
2013-10-27 17:43:00,55.2,33.6,30.05,WNW,294,2.0,9.0,44,0.00,,,0.00,meteohub,2013-10-27 21:43:00,
2013-10-27 17:48:00,55.0,33.4,30.05,West,268,3.0,7.0,44,0.00,,,0.00,meteohub,2013-10-27 21:48:00,
2013-10-27 17:53:00,54.7,33.3,30.06,WNW,300,5.0,9.0,44,0.00,,,0.00,meteohub,2013-10-27 21:53:00,
2013-10-27 17:58:00,54.5,33.6,30.06,NW,304,4.0,9.0,45,0.00,,,0.00,meteohub,2013-10-27 21:58:00,
2013-10-27 18:03:00,54.3,33.4,30.06,WNW,293,4.0,9.0,45,0.00,,,0.00,meteohub,2013-10-27 22:03:00,
2013-10-27 18:08:00,54.3,33.4,30.06,WNW,297,3.0,9.0,45,0.00,,,0.00,meteohub,2013-10-27 22:08:00,
2013-10-27 18:13:00,54.1,33.3,30.07,WNW,287,4.0,8.0,45,0.00,,,0.00,meteohub,2013-10-27 22:13:00,
2013-10-27 18:18:00,54.0,33.6,30.07,WNW,301,3.0,8.0,46,0.00,,,0.00,meteohub,2013-10-27 22:18:00,
2013-10-27 18:23:00,53.8,33.4,30.07,NW,311,2.0,8.0,46,0.00,,,0.00,meteohub,2013-10-27 22:23:00,
2013-10-27 18:28:00,53.4,33.1,30.07,WNW,291,2.0,7.0,46,0.00,,,0.00,meteohub,2013-10-27 22:28:00,
2013-10-27 18:33:00,53.2,33.4,30.08,West,269,2.0,5.0,47,0.00,,,0.00,meteohub,2013-10-27 22:33:00,
2013-10-27 18:38:00,53.2,33.4,30.08,NW,309,1.0,4.0,47,0.00,,,0.00,meteohub,2013-10-27 22:38:00,
2013-10-27 18:43:00,52.9,33.8,30.08,West,277,1.0,4.0,48,0.00,,,0.00,meteohub,2013-10-27 22:43:00,
2013-10-27 18:48:00,52.5,33.4,30.09,West,279,0.0,4.0,48,0.00,,,0.00,meteohub,2013-10-27 22:48:00,
2013-10-27 18:53:00,52.3,33.8,30.09,WNW,283,1.0,3.0,49,0.00,,,0.00,meteohub,2013-10-27 22:53:00,
2013-10-27 18:58:00,52.2,33.6,30.10,WNW,288,0.0,2.0,49,0.00,,,0.00,meteohub,2013-10-27 22:58:00,
2013-10-27 19:03:00,51.8,33.8,30.10,WNW,288,0.0,2.0,50,0.00,,,0.00,meteohub,2013-10-27 23:03:00,
2013-10-27 19:08:00,51.3,33.8,30.10,WNW,288,0.0,2.0,51,0.00,,,0.00,meteohub,2013-10-27 23:08:00,
2013-10-27 19:13:00,50.7,33.8,30.10,WNW,288,0.0,1.0,52,0.00,,,0.00,meteohub,2013-10-27 23:13:00,
2013-10-27 19:18:00,50.7,33.8,30.10,WNW,290,0.0,3.0,52,0.00,,,0.00,meteohub,2013-10-27 23:18:00,
2013-10-27 19:23:00,50.7,33.8,30.10,WNW,294,3.0,3.0,52,0.00,,,0.00,meteohub,2013-10-27 23:23:00,
2013-10-27 19:28:00,50.7,33.8,30.10,WNW,298,2.0,4.0,52,0.00,,,0.00,meteohub,2013-10-27 23:28:00,
2013-10-27 19:33:00,50.7,33.8,30.10,WNW,285,1.0,4.0,52,0.00,,,0.00,meteohub,2013-10-27 23:33:00,
2013-10-27 19:38:00,50.5,33.6,30.10,WNW,294,1.0,6.0,52,0.00,,,0.00,meteohub,2013-10-27 23:38:00,
2013-10-27 19:43:00,50.5,33.6,30.10,NW,319,2.0,6.0,52,0.00,,,0.00,meteohub,2013-10-27 23:43:00,
2013-10-27 19:48:00,50.4,33.4,30.11,WNW,293,1.0,6.0,52,0.00,,,0.00,meteohub,2013-10-27 23:48:00,
2013-10-27 19:53:00,50.4,33.4,30.11,WNW,291,0.0,5.0,52,0.00,,,0.00,meteohub,2013-10-27 23:53:00,
2013-10-27 19:58:00,50.2,33.3,30.11,NW,320,1.0,5.0,52,0.00,,,0.00,meteohub,2013-10-27 23:58:00,
2013-10-27 20:03:00,50.0,33.6,30.11,WNW,284,1.0,3.0,53,0.00,,,0.00,meteohub,2013-10-28 00:03:00,
2013-10-27 20:08:00,49.8,33.4,30.12,West,281,1.0,3.0,53,0.00,,,0.00,meteohub,2013-10-28 00:08:00,
2013-10-27 20:13:00,49.6,33.3,30.12,West,264,1.0,3.0,53,0.00,,,0.00,meteohub,2013-10-28 00:13:00,
2013-10-27 20:18:00,49.6,33.3,30.12,WNW,284,1.0,3.0,53,0.00,,,0.00,meteohub,2013-10-28 00:18:00,
2013-10-27 20:23:00,49.5,33.1,30.12,WNW,284,0.0,3.0,53,0.00,,,0.00,meteohub,2013-10-28 00:23:00,
2013-10-27 20:28:00,49.5,33.1,30.13,WNW,284,1.0,2.0,53,0.00,,,0.00,meteohub,2013-10-28 00:28:00,
2013-10-27 20:33:00,49.3,32.9,30.13,WNW,284,1.0,4.0,53,0.00,,,0.00,meteohub,2013-10-28 00:33:00,
2013-10-27 20:38:00,49.3,32.9,30.13,WNW,300,1.0,4.0,53,0.00,,,0.00,meteohub,2013-10-28 00:38:00,
2013-10-27 20:43:00,49.1,32.7,30.13,WNW,302,1.0,4.0,53,0.00,,,0.00,meteohub,2013-10-28 00:43:00,
2013-10-27 20:48:00,48.9,33.1,30.13,WNW,288,0.0,4.0,54,0.00,,,0.00,meteohub,2013-10-28 00:48:00,
2013-10-27 20:53:00,48.7,32.9,30.13,WNW,285,2.0,4.0,54,0.00,,,0.00,meteohub,2013-10-28 00:53:00,
2013-10-27 20:58:00,48.7,33.3,30.14,West,279,1.0,4.0,55,0.00,,,0.00,meteohub,2013-10-28 00:58:00,
2013-10-27 21:04:00,48.4,32.9,30.14,NW,315,1.0,3.0,55,0.00,,,0.00,meteohub,2013-10-28 01:04:00,
2013-10-27 21:09:00,48.0,33.1,30.14,WNW,287,1.0,3.0,56,0.00,,,0.00,meteohub,2013-10-28 01:09:00,
2013-10-27 21:14:00,48.0,33.1,30.14,WNW,291,0.0,3.0,56,0.00,,,0.00,meteohub,2013-10-28 01:14:00,
2013-10-27 21:19:00,47.8,32.9,30.14,West,279,2.0,3.0,56,0.00,,,0.00,meteohub,2013-10-28 01:19:00,
2013-10-27 21:24:00,47.7,32.7,30.14,WNW,293,0.0,3.0,56,0.00,,,0.00,meteohub,2013-10-28 01:24:00,
2013-10-27 21:29:00,47.5,33.1,30.15,WNW,295,0.0,3.0,57,0.00,,,0.00,meteohub,2013-10-28 01:29:00,
2013-10-27 21:34:00,47.3,32.9,30.15,WNW,288,1.0,3.0,57,0.00,,,0.00,meteohub,2013-10-28 01:34:00,
2013-10-27 21:39:00,47.1,32.7,30.15,WNW,291,1.0,3.0,57,0.00,,,0.00,meteohub,2013-10-28 01:39:00,
2013-10-27 21:44:00,47.1,33.1,30.15,WNW,294,0.0,2.0,58,0.00,,,0.00,meteohub,2013-10-28 01:44:00,
2013-10-27 21:49:00,46.9,32.9,30.16,West,267,0.0,2.0,58,0.00,,,0.00,meteohub,2013-10-28 01:49:00,
2013-10-27 21:54:00,46.8,32.7,30.16,WNW,300,0.0,2.0,58,0.00,,,0.00,meteohub,2013-10-28 01:54:00,
2013-10-27 21:59:00,46.6,33.1,30.16,WNW,294,0.0,2.0,59,0.00,,,0.00,meteohub,2013-10-28 01:59:00,
2013-10-27 22:04:00,46.2,32.7,30.17,WNW,294,0.0,2.0,59,0.00,,,0.00,meteohub,2013-10-28 02:04:00,
2013-10-27 22:09:00,45.9,32.7,30.17,WNW,294,0.0,2.0,60,0.00,,,0.00,meteohub,2013-10-28 02:09:00,
2013-10-27 22:14:00,45.5,32.9,30.17,WNW,294,0.0,1.0,61,0.00,,,0.00,meteohub,2013-10-28 02:14:00,
2013-10-27 22:19:00,45.5,33.3,30.17,NW,305,1.0,2.0,62,0.00,,,0.00,meteohub,2013-10-28 02:19:00,
2013-10-27 22:24:00,45.7,33.1,30.17,WNW,288,0.0,3.0,61,0.00,,,0.00,meteohub,2013-10-28 02:24:00,
2013-10-27 22:29:00,45.7,33.1,30.17,WNW,298,0.0,3.0,61,0.00,,,0.00,meteohub,2013-10-28 02:29:00,
2013-10-27 22:34:00,45.5,32.9,30.17,WNW,295,0.0,3.0,61,0.00,,,0.00,meteohub,2013-10-28 02:34:00,
2013-10-27 22:39:00,45.1,32.9,30.17,WNW,295,0.0,1.0,62,0.00,,,0.00,meteohub,2013-10-28 02:39:00,
2013-10-27 22:44:00,45.0,32.7,30.17,WNW,295,0.0,1.0,62,0.00,,,0.00,meteohub,2013-10-28 02:44:00,
2013-10-27 22:49:00,45.0,33.1,30.17,WNW,295,0.0,1.0,63,0.00,,,0.00,meteohub,2013-10-28 02:49:00,
2013-10-27 22:54:00,44.8,32.9,30.18,WNW,295,0.0,1.0,63,0.00,,,0.00,meteohub,2013-10-28 02:54:00,
2013-10-27 22:59:00,44.4,33.1,30.17,WNW,295,0.0,1.0,64,0.00,,,0.00,meteohub,2013-10-28 02:59:00,
2013-10-27 23:04:00,44.2,32.9,30.18,WNW,295,0.0,1.0,64,0.00,,,0.00,meteohub,2013-10-28 03:04:00,
2013-10-27 23:09:00,43.9,32.5,30.18,WNW,295,0.0,1.0,64,0.00,,,0.00,meteohub,2013-10-28 03:09:00,
2013-10-27 23:14:00,43.5,32.9,30.18,WNW,295,0.0,1.0,66,0.00,,,0.00,meteohub,2013-10-28 03:14:00,
2013-10-27 23:19:00,43.3,32.7,30.17,WNW,295,0.0,1.0,66,0.00,,,0.00,meteohub,2013-10-28 03:19:00,
2013-10-27 23:24:00,43.3,32.7,30.18,WNW,295,0.0,1.0,66,0.00,,,0.00,meteohub,2013-10-28 03:24:00,
2013-10-27 23:29:00,43.3,32.7,30.18,WNW,297,0.0,1.0,66,0.00,,,0.00,meteohub,2013-10-28 03:29:00,
2013-10-27 23:34:00,43.3,32.7,30.18,WNW,295,0.0,1.0,66,0.00,,,0.00,meteohub,2013-10-28 03:34:00,
2013-10-27 23:39:00,43.3,32.7,30.18,WNW,295,0.0,2.0,66,0.00,,,0.00,meteohub,2013-10-28 03:39:00,
2013-10-27 23:44:00,43.3,32.7,30.18,WNW,295,0.0,2.0,66,0.00,,,0.00,meteohub,2013-10-28 03:44:00,
2013-10-27 23:49:00,43.2,32.5,30.18,WNW,295,0.0,2.0,66,0.00,,,0.00,meteohub,2013-10-28 03:49:00,
2013-10-27 23:54:00,43.2,32.9,30.19,WNW,295,0.0,1.0,67,0.00,,,0.00,meteohub,2013-10-28 03:54:00,
2013-10-27 23:59:00,42.6,32.4,30.19,WNW,295,0.0,1.0,67,0.00,,,0.00,meteohub,2013-10-28 03:59:00,